This is the latest recevied weather packets stored in our database for station/object KD8JAM. If no packets are shown the sender has not sent any weather packets the latest 10 day(s).
| Time | Temp. | Humidity | Pressure | Rain* | Wind** | Luminosity | Snow |
|---|---|---|---|---|---|---|---|
| 1777930201 | 8.89° C | 73% | 995.9 hPa | 0 mm | - | 494 W/m² | - |
| 1777929896 | 8.89° C | 72% | 996 hPa | 0 mm | - | 504 W/m² | - |
| 1777929594 | 8.89° C | 70% | 995.7 hPa | 0 mm | - | 514 W/m² | - |
| 1777929290 | 8.89° C | 70% | 995.9 hPa | 0 mm | - | 534 W/m² | - |
| 1777928988 | 8.89° C | 71% | 995.9 hPa | 0 mm | - | 537 W/m² | - |
| 1777928684 | 9.44° C | 71% | 995.8 hPa | 0 mm | - | 550 W/m² | - |
| 1777928381 | 8.89° C | 71% | 995.6 hPa | 0 mm | - | 554 W/m² | - |
| 1777928079 | 8.89° C | 74% | 995.9 hPa | 0 mm | - | 582 W/m² | - |
| 1777927777 | 8.33° C | 76% | 995.9 hPa | 0 mm | - | 590 W/m² | - |
| 1777927475 | 8.33° C | 76% | 995.6 hPa | 0 mm | - | 608 W/m² | - |
| 1777927174 | 8.33° C | 75% | 995.5 hPa | 0 mm | - | 611 W/m² | - |
| 1777926871 | 8.89° C | 74% | 995.6 hPa | 0 mm | - | 609 W/m² | - |
| 1777926567 | 8.89° C | 74% | 995.5 hPa | 0 mm | - | 625 W/m² | - |
| 1777926264 | 8.89° C | 74% | 995.6 hPa | 0 mm | - | 636 W/m² | - |
| 1777925961 | 8.89° C | 74% | 995.5 hPa | 0 mm | - | 645 W/m² | - |
| 1777925658 | 8.89° C | 74% | 995.4 hPa | 0 mm | - | 660 W/m² | - |
| 1777925355 | 8.89° C | 74% | 995.6 hPa | 0 mm | - | 670 W/m² | - |
| 1777925052 | 8.89° C | 76% | 995.4 hPa | 0 mm | - | 695 W/m² | - |
| 1777924749 | 8.89° C | 77% | 995.2 hPa | 0 mm | - | 729 W/m² | - |
| 1777924444 | 9.44° C | 75% | 995.1 hPa | 0 mm | - | 449 W/m² | - |
| 1777924141 | 10° C | 72% | 995.2 hPa | 0 mm | - | 675 W/m² | - |
| 1777923837 | 9.44° C | 73% | 995.2 hPa | 0 mm | - | 508 W/m² | - |
| 1777923533 | 9.44° C | 75% | 994.9 hPa | 0 mm | - | 719 W/m² | - |
| 1777923230 | 8.89° C | 74% | 995.1 hPa | 0 mm | - | 766 W/m² | - |
| 1777922929 | 8.89° C | 76% | 994.8 hPa | 0 mm | - | 371 W/m² | - |
* Rain latest hour (hover to see other rain measurements)
** Current wind speed in m/s (hover to see current wind gust speed)